Погода в Брокенхерсте

Великобритания     50°49′10″N   1°34′26″W
темп.,
°C
ветер,
м/с
пор.,
м/с
влажн.,
%
обл.,
%
осадки,
мм/ч
давл.,
гПа
погр.,
м
17 апреля, сб
сб1701:00+4всв33785 0.0 103092
04:00+3св33765 0.0 103075
07:00+2ссв35802 0.0 1030132
10:00+8св45540 0.0 1030817
13:00+10в23432 0.0 10291214
16:00+11юз2347100 0.0 10271232
19:00+8юз45668 0.0 1027187
22:00+5сз338253 0.0 102760
18 апреля, вс
вс1801:00+4ссв228187 0.0 102753
04:00+3с338886 0.0 102661
07:00+3ссв3385100 0.0 102686
10:00+9св2264100 0.0 1026524
13:00+11ю325887 0.0 10251116
16:00+10ююз436891 0.0 1024562
19:00+8юз34755 0.0 1024239
22:00+6зюз2284100 0.0 102441
19 апреля, пн
пн1901:00+5зсз11863 0.0 102318
04:00+5с11875 0.0 102228
07:00+5св11872 0.0 102240
10:00+10юв11675 0.0 1022516
13:00+11ю336556 0.0 1021758
16:00+11ю33655 0.0 1020697
19:00+9юз22746 0.0 1019146
22:00+7ю017869 0.0 102022
20 апреля, вт
вт2001:00+7всв007828 0.0 101919
04:00+5св11845 0.0 101827
07:00+6ссв11825 0.0 101938
10:00+11всв12635 0.0 1019511
13:00+13ю335861 0.1 10191036
16:00+10юз226576 0.1 1019191
19:00+11ссз1372100 0.1 1020168
22:00+9ссв3686100 0.0 102194
21 апреля, ср
ср2101:00+7ссв358883 0.0 102294
04:00+6ссв358896 0.0 1022102
07:00+6ссв37915 0.0 1023174
10:00+11св467145 0.0 1024616
13:00+12вюв346795 0.3 1025802
16:00+10юв358148 0.4 1025269
19:00+10юв247381 0.4 1026235
22:00+7вюв378382 0.0 1028213